Retour au catalogue

STARLINK-5539

ActifCommunicationsVLEO
NORAD 55747·PAYLOAD·🇺🇸 United States

Lancé Mar 3, 2023 depuis Vandenberg Space Force Base

Loading…

Prochains Passages (prochaines 24 heures)

TLE

FraisSource: CelesTrak SupGP

Époque: Sep 14, 2026, 20:44 UTC

1 55747C 23028G   26257.86437500 -.00025928  00000+0 -21727-2 0  2573
2 55747  70.0003 127.5482 0002688 266.2320 145.3073 14.98346607    16

Suivez STARLINK-5539 en temps réel avec AllMySat

Download on the App Store